Back to catalog

STARLINK-4565

AliveCommunicationsVLEO
NORAD 53562·PAYLOAD·🇺🇸 United States

Launched Aug 19, 2022 from Cape Canaveral Space Force Station

Loading…

Next Passes (next 24 hours)

TLE

FreshSource: CelesTrak SupGP

Epoch: Sep 15, 2026, 02:05 UTC

1 53562C 22101AM  26258.08729167 -.00005921  00000+0 -17492-3 0  2582
2 53562  53.1575 268.9424 0001333  94.5984 200.7617 15.34398441    19

Track STARLINK-4565 in real time with AllMySat

Download on the App Store